This is the latest recevied weather packets stored in our database for station/object KC1TEM-13. If no packets are shown the sender has not sent any weather packets the latest 10 day(s).
| Time | Temp. | Humidity | Pressure | Rain* | Wind** | Luminosity | Snow |
|---|---|---|---|---|---|---|---|
| 1777649562 | 15° C | 40% | 1010 hPa | 0 mm | - | 884 W/m² | - |
| 1777649257 | 14.44° C | 44% | 1010 hPa | 0 mm | - | 569 W/m² | - |
| 1777648954 | 15° C | 41% | 1010.2 hPa | 0 mm | - | 906 W/m² | - |
| 1777648651 | 15° C | 40% | 1010 hPa | 0 mm | - | 874 W/m² | - |
| 1777648348 | 14.44° C | 39% | 1010.1 hPa | 0 mm | - | 884 W/m² | - |
| 1777648044 | 15° C | 42% | 1010 hPa | 0 mm | - | 877 W/m² | - |
| 1777647740 | 13.89° C | 43% | 1010.2 hPa | 0 mm | - | 866 W/m² | - |
| 1777647437 | 13.89° C | 43% | 1010.1 hPa | 0 mm | - | 259 W/m² | - |
| 1777647135 | 14.44° C | 39% | 1009.8 hPa | 0 mm | - | 828 W/m² | - |
| 1777646831 | 14.44° C | 41% | 1010.2 hPa | 0 mm | - | 856 W/m² | - |
| 1777646526 | 14.44° C | 41% | 1010 hPa | 0 mm | - | 811 W/m² | - |
| 1777646222 | 14.44° C | 45% | 1010 hPa | 0 mm | - | 813 W/m² | - |
| 1777645920 | 13.33° C | 44% | 1010 hPa | 0 mm | - | 784 W/m² | - |
| 1777645617 | 13.89° C | 43% | 1009.9 hPa | 0 mm | - | 773 W/m² | - |
| 1777645312 | 13.33° C | 44% | 1009.8 hPa | 0 mm | - | 764 W/m² | - |
| 1777645009 | 13.33° C | 45% | 1009.9 hPa | 0 mm | - | 749 W/m² | - |
| 1777644706 | 13.33° C | 44% | 1010.1 hPa | 0 mm | - | 739 W/m² | - |
| 1777644402 | 13.33° C | 43% | 1009.8 hPa | 0 mm | - | 728 W/m² | - |
| 1777644099 | 12.78° C | 48% | 1009.8 hPa | 0 mm | - | 715 W/m² | - |
| 1777643796 | 13.33° C | 43% | 1009.9 hPa | 0 mm | - | 702 W/m² | - |
| 1777643493 | 12.78° C | 47% | 1009.9 hPa | 0 mm | - | 688 W/m² | - |
| 1777643190 | 12.78° C | 48% | 1009.9 hPa | 0 mm | - | 678 W/m² | - |
| 1777642887 | 12.78° C | 48% | 1009.9 hPa | 0 mm | - | 661 W/m² | - |
| 1777642583 | 12.22° C | 52% | 1009.8 hPa | 0 mm | - | 647 W/m² | - |
| 1777642280 | 12.22° C | 52% | 1009.9 hPa | 0 mm | - | 606 W/m² | - |
* Rain latest hour (hover to see other rain measurements)
** Current wind speed in m/s (hover to see current wind gust speed)